[[{"header":{"parameterUnit":"m.s-1","parameterCategory":1,"la1":30.2991,"la2":30.254,"lo1":-89.0895,"lo2":-89.0444,"dy":0.0017,"dx":0.0017,"nx":28,"ny":28,"refTime":"2024-12-17T09:00:00:Z","depth":0,"parameterNumber":2,"parameterNumberName":"U-component_of_WINDS"},"data":[0,0,0,0,0,0,0,0,0,0,0,0,0,0,0,0,0,0,0,0,0,0,0,0,0,0,0,0,0,0,0,0,0,0,0,0,0,0,0,0,0,0,0,0,0,0,0,0,0,0,0,0,0,0,0,0,0,0,-0.431,-0.4309,0,-0.4236,-0.4235,-0.4234,-0.4146,-0.4145,-0.4144,-0.4142,-0.4068,-0.4067,-0.4066,0,0,0,0,0,0,0,0,0,0,0,0,0,-0.4378,-0.4377,-0.431,-0.4309,-0.4308,-0.4236,-0.4235,-0.4234,-0.4147,-0.4145,-0.4143,-0.4142,-0.4068,-0.4067,-0.4066,0,0,0,0,0,0,0,0,0,0,0,0,0,-0.4331,-0.4377,-0.431,-0.4256,-0.425,-0.4236,-0.4235,-0.4234,-0.4147,-0.4145,-0.4143,-0.4141,-0.4068,-0.4067,-0.4066,-0.41,0,0,-0.4063,-0.4062,0,0,0,0,0,0,0,0,-0.4333,-0.4328,-0.4265,-0.426,-0.4253,-0.4198,-0.4231,-0.4189,-0.4147,-0.4186,-0.4142,-0.414,-0.4113,-0.4108,-0.4099,-0.4096,-0.4093,-0.4063,-0.4062,-0.4062,-0.4061,0,0,0,0,0,0,0,-0.4337,-0.4331,-0.4281,-0.4264,-0.4257,-0.4236,-0.4227,-0.4223,-0.4162,-0.4183,-0.4176,-0.4168,-0.4109,-0.41,-0.4096,-0.4092,-0.4063,-0.4062,-0.4061,-0.4061,-0.4115,-0.4117,0,0,0,0,0,0,-0.4348,-0.4334,-0.4283,-0.4278,-0.4289,-0.4236,-0.4226,-0.4218,-0.4162,-0.4151,-0.417,-0.4165,-0.4103,-0.4098,-0.4093,-0.413,-0.4062,-0.406,-0.406,-0.4113,-0.4116,-0.4118,0,0,0,0,0,0,-0.435,-0.4344,-0.4286,-0.4305,-0.4295,-0.4237,-0.4229,-0.4218,-0.4208,-0.4152,-0.4141,-0.4172,-0.4101,-0.4095,-0.4099,-0.4126,-0.406,-0.4059,-0.4111,-0.4114,-0.4117,-0.4204,0,0,0,0,0,0,-0.4352,-0.4345,-0.4357,-0.4305,-0.4295,-0.4293,-0.423,-0.4218,-0.4206,-0.4198,-0.4151,-0.4141,-0.4099,-0.4101,-0.4098,-0.4124,-0.4058,-0.4108,-0.4112,-0.4116,-0.4198,-0.421,-0.4219,0,0,0,0,0,-0.4355,-0.4385,-0.4358,-0.4353,-0.4308,-0.4295,-0.4289,-0.4239,-0.4209,-0.422,-0.4185,-0.4142,-0.4124,-0.4102,-0.4098,-0.4124,-0.4106,-0.4111,-0.4115,-0.4194,-0.4207,-0.4219,0,0,0,0,0,0,-0.4442,-0.4377,-0.4347,-0.4361,-0.4334,-0.428,-0.4293,-0.4255,-0.4237,-0.423,-0.417,-0.416,-0.4172,-0.4148,-0.4125,-0.4154,-0.4109,-0.4113,-0.417,-0.4182,-0.4193,-0.4199,-0.4057,0,0,0,0,0,-0.4462,-0.4456,-0.44,-0.4418,-0.4406,-0.4352,-0.4344,-0.4309,-0.4278,-0.4267,-0.4231,-0.4204,-0.4192,-0.4186,-0.4171,-0.4194,-0.4183,-0.421,-0.422,-0.4229,-0.4234,-0.4245,-0.4257,-0.4133,-0.4133,-0.4133,0,0,-0.4505,-0.4469,-0.4469,-0.4434,-0.4409,-0.4405,-0.4343,-0.4341,-0.4338,-0.4266,-0.4269,-0.4242,-0.4208,-0.4222,-0.4226,-0.4202,-0.4265,-0.4235,-0.4243,-0.4242,-0.4252,-0.4263,-0.4274,-0.4137,-0.4136,-0.4136,0,0,-0.4581,-0.4553,-0.4565,-0.4541,-0.4504,-0.4468,-0.4471,-0.4423,-0.4403,-0.4404,-0.4351,-0.4346,-0.4326,-0.4304,-0.4291,-0.436,-0.432,-0.4356,-0.4412,-0.4424,-0.4434,-0.4442,-0.4468,-0.4478,-0.4361,-0.4361,-0.4361,0,-0.4639,-0.463,-0.4576,-0.4578,-0.4565,-0.45,-0.4513,-0.4492,-0.4453,-0.4446,-0.4419,-0.4393,-0.4365,-0.4374,-0.4391,-0.4382,-0.4385,-0.4362,-0.4437,-0.4444,-0.4452,-0.4476,-0.4486,-0.4366,-0.4365,-0.4365,-0.4365,0,-0.4704,-0.4699,-0.4714,-0.4677,-0.4666,-0.4673,-0.462,-0.4615,-0.4581,-0.4548,-0.4551,-0.4515,-0.4493,-0.4492,-0.4459,-0.4497,-0.4483,-0.4448,-0.4401,-0.4469,-0.4491,-0.45,-0.4373,-0.4371,-0.437,-0.4369,0,0,-0.4834,-0.4767,-0.4774,-0.4757,-0.4712,-0.4707,-0.4711,-0.469,-0.4687,-0.4662,-0.4665,-0.465,-0.4617,-0.4602,-0.4565,-0.4575,-0.4634,-0.4538,-0.4536,-0.4559,-0.4676,-0.4705,-0.4716,-0.4607,-0.4609,-0.461,-0.468,0,-0.4903,-0.4907,-0.4859,-0.4876,-0.4871,-0.481,-0.4814,-0.4787,-0.4757,-0.4749,-0.4715,-0.4706,-0.4662,-0.4653,-0.466,-0.4626,-0.4657,-0.4619,-0.4611,-0.4612,-0.4623,-0.4727,-0.4757,-0.4825,-0.4688,-0.4689,-0.469,0,-0.4984,-0.4964,-0.4981,-0.4936,-0.4932,-0.4937,-0.4914,-0.4906,-0.4875,-0.4852,-0.4836,-0.4793,-0.4795,-0.475,-0.4753,-0.4729,-0.4722,-0.4705,-0.4706,-0.4705,-0.4656,-0.4731,-0.4845,-0.4856,-0.4703,-0.4702,-0.4701,0,-0.5079,-0.5056,-0.5063,-0.5051,-0.4998,-0.5003,-0.4981,-0.4947,-0.4938,-0.4917,-0.4911,-0.4891,-0.4881,-0.4867,-0.4822,-0.4793,-0.4831,-0.4781,-0.4813,-0.4815,-0.4825,-0.4825,-0.4942,-0.4818,-0.4818,-0.4818,-0.4818,0,-0.5162,-0.5175,-0.5105,-0.511,-0.5124,-0.5068,-0.5083,-0.5056,-0.5026,-0.5026,-0.4971,-0.4971,-0.491,-0.4903,-0.4867,-0.4877,-0.4872,-0.4854,-0.4845,-0.486,-0.4863,-0.4856,-0.4851,-0.4821,-0.482,-0.482,-0.4819,0,-0.5271,-0.5224,-0.5229,-0.5178,-0.5166,-0.5178,-0.5135,-0.5138,-0.5104,-0.5104,-0.5101,-0.5048,-0.5038,-0.4991,-0.4969,-0.4945,-0.4967,-0.4947,-0.4978,-0.4972,-0.5007,-0.5006,-0.5125,-0.5139,-0.5006,-0.5007,-0.5008,0,-0.5328,-0.5337,-0.5287,-0.5283,-0.5264,-0.5257,-0.5247,-0.5192,-0.5185,-0.515,-0.5158,-0.5143,-0.5129,-0.5116,-0.5076,-0.506,-0.504,-0.5083,-0.5037,-0.5053,-0.5043,-0.5044,-0.5045,-0.5094,-0.5095,-0.5097,-0.5098,0,-0.5434,-0.5411,-0.5399,-0.5379,-0.5369,-0.5351,-0.5329,-0.5329,-0.5268,-0.5263,-0.5252,-0.5241,-0.5219,-0.5206,-0.5183,-0.5161,-0.5121,-0.5113,-0.5119,-0.5136,-0.5154,-0.5147,-0.5007,-0.511,-0.5109,-0.5108,-0.5108,-0.5107,-0.552,-0.5526,-0.5492,-0.5481,-0.5459,-0.544,-0.5441,-0.5408,-0.5397,-0.5376,-0.5344,-0.5338,-0.5307,-0.5272,-0.5254,-0.5248,-0.5225,-0.5235,-0.5237,-0.5241,-0.5249,-0.5154,-0.5244,-0.5243,-0.5243,-0.5243,-0.5242,0,-0.5625,-0.5601,-0.5591,-0.5563,-0.5554,-0.5516,-0.549,-0.5486,-0.5481,-0.5455,-0.5442,-0.5431,-0.5418,-0.5377,-0.536,-0.5364,-0.5345,-0.5362,-0.5362,-0.5358,-0.527,-0.5267,-0.5378,-0.5378,-0.5378,-0.5378,-0.5378,-0.5378,-0.5679,-0.5687,-0.5661,-0.5658,-0.5633,-0.5626,-0.5615,-0.5598,-0.5578,-0.5567,-0.5556,-0.553,-0.5498,-0.5479,-0.5466,-0.5454,-0.5452,-0.5475,-0.5458,-0.5377,-0.5364,-0.5352,-0.5348,-0.5474,-0.5474,-0.5546,-0.5546,-0.5547]},{"header":{"parameterUnit":"m.s-1","parameterCategory":1,"la1":30.2991,"la2":30.254,"lo1":-89.0895,"lo2":-89.0444,"dy":0.0017,"dx":0.0017,"nx":28,"ny":28,"refTime":"2024-12-17T09:00:00:Z","depth":0,"parameterNumber":3,"parameterNumberName":"V-component_of_WINDS"},"data":[0,0,0,0,0,0,0,0,0,0,0,0,0,0,0,0,0,0,0,0,0,0,0,0,0,0,0,0,0,0,0,0,0,0,0,0,0,0,0,0,0,0,0,0,0,0,0,0,0,0,0,0,0,0,0,0,0,0,-0.4079,-0.4079,0,-0.4086,-0.4086,-0.4086,-0.4064,-0.4063,-0.4062,-0.4062,-0.4068,-0.4069,-0.4069,0,0,0,0,0,0,0,0,0,0,0,0,0,-0.4046,-0.4047,-0.4079,-0.408,-0.408,-0.4086,-0.4086,-0.4086,-0.4064,-0.4063,-0.4062,-0.4061,-0.4068,-0.4069,-0.407,0,0,0,0,0,0,0,0,0,0,0,0,0,-0.4058,-0.4047,-0.4079,-0.4069,-0.4068,-0.4086,-0.4086,-0.4086,-0.4064,-0.4063,-0.4062,-0.4061,-0.4067,-0.4069,-0.407,-0.4098,0,0,-0.4073,-0.4074,0,0,0,0,0,0,0,0,-0.4057,-0.4059,-0.4071,-0.407,-0.4069,-0.4073,-0.4077,-0.409,-0.4064,-0.4066,-0.4062,-0.406,-0.407,-0.4071,-0.4075,-0.4098,-0.4098,-0.4073,-0.4074,-0.4075,-0.4075,0,0,0,0,0,0,0,-0.4056,-0.4059,-0.4082,-0.4071,-0.407,-0.4064,-0.4065,-0.4079,-0.4074,-0.4065,-0.4064,-0.4065,-0.407,-0.4074,-0.4075,-0.4098,-0.4073,-0.4075,-0.4075,-0.4076,-0.4146,-0.4147,0,0,0,0,0,0,-0.4057,-0.4058,-0.4082,-0.4082,-0.406,-0.4066,-0.4066,-0.4073,-0.4073,-0.4073,-0.4066,-0.4064,-0.4072,-0.4073,-0.4075,-0.4109,-0.4075,-0.4076,-0.4077,-0.4145,-0.4146,-0.4147,0,0,0,0,0,0,-0.4056,-0.4059,-0.4082,-0.407,-0.4072,-0.4067,-0.4075,-0.4073,-0.4077,-0.4074,-0.4073,-0.4071,-0.4071,-0.4073,-0.4093,-0.4109,-0.4076,-0.4077,-0.4144,-0.4145,-0.4147,-0.4176,0,0,0,0,0,0,-0.4056,-0.4059,-0.407,-0.407,-0.4073,-0.4099,-0.4076,-0.4074,-0.408,-0.4077,-0.4078,-0.4077,-0.4071,-0.4091,-0.4094,-0.411,-0.4078,-0.4142,-0.4144,-0.4146,-0.4174,-0.4179,-0.4183,0,0,0,0,0,-0.4054,-0.4077,-0.4071,-0.4074,-0.4086,-0.41,-0.4102,-0.4094,-0.4081,-0.4092,-0.409,-0.4077,-0.4106,-0.4093,-0.4096,-0.4113,-0.4141,-0.4144,-0.4146,-0.4172,-0.4178,-0.4183,0,0,0,0,0,0,-0.4079,-0.4077,-0.407,-0.4093,-0.4097,-0.4096,-0.411,-0.41,-0.4108,-0.4105,-0.4094,-0.4095,-0.4116,-0.4116,-0.4101,-0.414,-0.4121,-0.4125,-0.414,-0.4146,-0.415,-0.415,-0.4079,0,0,0,0,0,-0.4087,-0.4099,-0.4097,-0.4118,-0.412,-0.4115,-0.412,-0.4114,-0.4118,-0.4119,-0.4118,-0.4122,-0.4132,-0.4138,-0.4147,-0.4173,-0.4174,-0.4186,-0.4191,-0.4195,-0.4198,-0.4213,-0.4219,-0.4156,-0.4156,-0.4156,0,0,-0.4104,-0.4104,-0.4112,-0.4123,-0.4125,-0.4138,-0.4116,-0.413,-0.414,-0.4121,-0.414,-0.4139,-0.4142,-0.4166,-0.4176,-0.4166,-0.4216,-0.4198,-0.4201,-0.4203,-0.4217,-0.4223,-0.4228,-0.4158,-0.4157,-0.4157,0,0,-0.4141,-0.4143,-0.4161,-0.4164,-0.4168,-0.4164,-0.4169,-0.4169,-0.4169,-0.4187,-0.4174,-0.4185,-0.4202,-0.4205,-0.4209,-0.4249,-0.4239,-0.4252,-0.4276,-0.4291,-0.4296,-0.4301,-0.4316,-0.4322,-0.4255,-0.4255,-0.4255,0,-0.4162,-0.4181,-0.4172,-0.4187,-0.4193,-0.4177,-0.4196,-0.4199,-0.4205,-0.4209,-0.4198,-0.422,-0.4221,-0.4246,-0.4256,-0.4259,-0.4264,-0.4252,-0.4296,-0.4301,-0.4305,-0.4319,-0.4325,-0.4257,-0.4257,-0.4256,-0.4256,0,-0.4206,-0.422,-0.4234,-0.4242,-0.4248,-0.4265,-0.4259,-0.4267,-0.426,-0.4258,-0.4277,-0.4278,-0.4287,-0.4292,-0.4285,-0.4316,-0.4311,-0.4298,-0.4279,-0.4313,-0.4326,-0.4332,-0.4259,-0.4259,-0.4258,-0.4258,0,0,-0.426,-0.4263,-0.4268,-0.4272,-0.4275,-0.4286,-0.4302,-0.4312,-0.4319,-0.4324,-0.4338,-0.4353,-0.4342,-0.4347,-0.434,-0.4353,-0.4386,-0.4339,-0.4339,-0.4349,-0.4422,-0.4433,-0.4439,-0.4379,-0.438,-0.4381,-0.4422,0,-0.4298,-0.4327,-0.432,-0.4349,-0.4361,-0.4347,-0.4361,-0.4365,-0.4363,-0.4374,-0.4371,-0.4383,-0.4366,-0.4369,-0.4381,-0.438,-0.4401,-0.4376,-0.4393,-0.4394,-0.4394,-0.4446,-0.4457,-0.4496,-0.4427,-0.4428,-0.4429,0,-0.4346,-0.4354,-0.4385,-0.4387,-0.4392,-0.4406,-0.4415,-0.4424,-0.4429,-0.4426,-0.4432,-0.4423,-0.4439,-0.4419,-0.4443,-0.4426,-0.4432,-0.4433,-0.4434,-0.4436,-0.4414,-0.4451,-0.4508,-0.4515,-0.4437,-0.4436,-0.4436,0,-0.4384,-0.4402,-0.4423,-0.4427,-0.443,-0.444,-0.4441,-0.4444,-0.4451,-0.4458,-0.4463,-0.4472,-0.4477,-0.4485,-0.4478,-0.4464,-0.4503,-0.4482,-0.4503,-0.4503,-0.4512,-0.4512,-0.4573,-0.4514,-0.4514,-0.4514,-0.4514,0,-0.4429,-0.4448,-0.4441,-0.4454,-0.4475,-0.4467,-0.4488,-0.4488,-0.4491,-0.4504,-0.4491,-0.4503,-0.4494,-0.4505,-0.45,-0.4521,-0.4523,-0.4522,-0.4521,-0.4524,-0.4525,-0.4529,-0.4527,-0.4515,-0.4515,-0.4515,-0.4514,0,-0.4475,-0.447,-0.4493,-0.4494,-0.4495,-0.4511,-0.4512,-0.4524,-0.4521,-0.4538,-0.4541,-0.4537,-0.455,-0.4544,-0.4558,-0.4554,-0.4582,-0.4576,-0.4581,-0.458,-0.4601,-0.46,-0.4668,-0.4677,-0.4611,-0.4612,-0.4612,0,-0.4504,-0.4519,-0.4522,-0.453,-0.4533,-0.4546,-0.4553,-0.4545,-0.4553,-0.4559,-0.4571,-0.4583,-0.4592,-0.4614,-0.4612,-0.4623,-0.4618,-0.4641,-0.4619,-0.4623,-0.462,-0.462,-0.4622,-0.4646,-0.4647,-0.4647,-0.4648,0,-0.4557,-0.4554,-0.4565,-0.4576,-0.4585,-0.4592,-0.4599,-0.4606,-0.4598,-0.4608,-0.4622,-0.4629,-0.4643,-0.4656,-0.4665,-0.4667,-0.4657,-0.4654,-0.466,-0.4664,-0.4667,-0.4667,-0.4594,-0.4653,-0.4653,-0.4652,-0.4652,-0.4652,-0.4597,-0.461,-0.4615,-0.4627,-0.4632,-0.4638,-0.465,-0.465,-0.4661,-0.4672,-0.4667,-0.4683,-0.4687,-0.4699,-0.4702,-0.4715,-0.4706,-0.4713,-0.4715,-0.4718,-0.4721,-0.4664,-0.4716,-0.4716,-0.4716,-0.4716,-0.4715,0,-0.465,-0.4653,-0.4665,-0.4675,-0.4685,-0.4674,-0.4681,-0.4691,-0.4705,-0.471,-0.472,-0.4736,-0.4749,-0.4748,-0.4759,-0.477,-0.4765,-0.4773,-0.4773,-0.4774,-0.4728,-0.4723,-0.4777,-0.4777,-0.4777,-0.4777,-0.4777,-0.4777,-0.4679,-0.4702,-0.47,-0.4724,-0.4726,-0.4742,-0.4747,-0.4754,-0.4758,-0.4777,-0.4787,-0.4787,-0.479,-0.4802,-0.4813,-0.4812,-0.4817,-0.4827,-0.4825,-0.4783,-0.4777,-0.4771,-0.4766,-0.4828,-0.4828,-0.487,-0.4871,-0.4871]}]]